Regional Weather Roundup
Issued by NWS

Home | Current Version | Previous Version | Text Only | Print | Product List | Glossary Off
Versions: 1 2 3 4 5 6 7 8 9 10 11 12 13 14 15 16 17 18 19 20 21 22 23 24 25 26 27 28 29 30 31 32 33 34 35 36 37 38 39 40 41 42 43 44 45 46 47 48 49 50

000
ASUS43 KFSD 220502
RWRSD

WEATHER ROUNDUP FOR SOUTH DAKOTA
NATIONAL WEATHER SERVICE SIOUX FALLS SD
1100 PM CST TUE NOV 21 2017

NOTE: "FAIR" INDICATES FEW OR NO CLOUDS BELOW 12,000 FEET WITH NO
SIGNIFICANT WEATHER AND/OR OBSTRUCTIONS TO VISIBILITY.


SDZ001>005-009-010-012>017-220600-
NORTHWEST AND NORTH CENTRAL SOUTH DAKOTA

CITY           SKY/WX    TMP DP  RH WIND       PRES   REMARKS
BUFFALO          N/A     22  11  62 S6        30.10F WCI  14
FAITH            N/A     16   5  62 S14       30.21F WCI   2
MOBRIDGE       CLOUDY    15   5  64 SE6       30.27F WCI   6
$$

SDZ012>016-024>037-041>051-057-063-072>074-220600-
SOUTHWEST AND SOUTH CENTRAL SOUTH DAKOTA

CITY           SKY/WX    TMP DP  RH WIND       PRES   REMARKS
RAPID CTY ARPT CLOUDY    23  17  78 SE8       30.20F WCI  14
PIERRE         CLOUDY    13   7  77 S3        30.32R
CUSTER         CLOUDY    31  22  69 W7        30.17R WCI  24
PHILIP         CLOUDY    17  12  80 NE3       30.27F
PINE RIDGE     CLOUDY    27  23  85 SW3       30.21F
SPEARFISH      FAIR      27  23  86 SE5       30.14F WCI  21
WINNER         FAIR      15   8  73 S7        30.33S WCI   5
$$

SDZ004>011-016>023-039-040-220600-
NORTHEAST SOUTH DAKOTA

CITY           SKY/WX    TMP DP  RH WIND       PRES   REMARKS
ABERDEEN       CLOUDY     4   1  88 CALM      30.35F
WATERTOWN      CLOUDY    13   8  81 W5        30.31S WCI   5
BROOKINGS      CLOUDY    13   7  77 W6        30.34S WCI   4
SISSETON         N/A     14   7  73 W5        30.34F WCI   6
$$

SDZ017-020-022-023-036>040-048>070-220600-
SOUTHEAST SOUTH DAKOTA

CITY           SKY/WX    TMP DP  RH WIND       PRES   REMARKS
SIOUX FALLS    CLOUDY    15   8  73 NW3       30.36R
HURON          CLOUDY    12   6  77 CALM      30.38S
CHAMBERLAIN    CLEAR     13  11  90 CALM      30.34F
MITCHELL       CLOUDY    14   7  73 W5        30.40R WCI   6
YANKTON        CLOUDY    16   9  74 W8        30.40R WCI   5
$$

ABBREVIATIONS USED IN REMARKS
   TC - TEMPERATURE IN CELSIUS
  WCI - WIND CHILL INDEX
   HX - HEAT INDEX
  VSB - VISIBILITY




USA.gov is the U.S. government's official web portal to all federal, state and local government web resources and services.